GW2412 Weather Reports


Display with metric or nautical units.
time (UTC)temp
F
wind
direction
speed
MPH
gust
MPH
rain 1hr
in
rain 24hr
in
rain mn
in
humidity
%
barometer
mb
20260508055021 42 355 4.0 8.0 0.00 0.00 0.00 1 1013.2
20260508054640 43 355 4.0 6.0 0.00 0.00 0.00 1 1013.3
20260508054018 44 355 2.0 6.0 0.00 0.00 0.00 1 1013.3
20260508053516 45 355 3.0 8.0 0.00 0.00 0.00 1 1013.3
20260508053136 45 355 5.0 8.0 0.00 0.00 0.00 1 1013.1
20260508052517 46 344 4.0 8.0 0.00 0.00 0.00 1 1013.3
20260508052017 47 344 2.0 8.0 0.00 0.00 0.00 1 1013.1
20260508051928 50 360 4.0 8.0 0.00 0.00 0.00 1 1013.1
20260508051016 50 307 6.0 8.0 0.00 0.00 0.00 1 1013.0
20260508050525 49 355 2.0 9.0 0.00 0.00 0.00 1 1013.1
20260508050110 50 355 3.0 11.0 0.00 0.00 0.00 1 1013.1
20260508045523 50 350 9.0 11.0 0.00 0.00 0.00 1 1013.0
20260508045013 50 343 8.0 10.0 0.00 0.00 0.00 1 1013.1
20260508044557 50 350 8.0 10.0 0.00 0.00 0.00 1 1013.0
20260508044021 50 346 8.0 9.0 0.00 0.00 0.00 1 1013.1
20260508043520 50 344 8.0 9.0 0.00 0.00 0.00 1 1013.1
20260508043039 50 335 6.0 9.0 0.00 0.00 0.00 1 1013.1
20260508042516 50 304 5.0 7.0 0.00 0.00 0.00 1 1013.1
20260508042016 50 304 4.0 8.0 0.00 0.00 0.00 1 1013.0
20260508041551 49 304 6.0 8.0 0.00 0.00 0.00 1 1013.0
20260508041014 50 290 1.0 5.0 0.00 0.00 0.00 1 1012.8
20260508040517 51 290 2.0 5.0 0.00 0.00 0.00 1 1013.0
20260508040109 52 274 3.0 7.0 0.00 0.00 0.00 1 1013.1
20260508035516 52 296 4.0 8.0 0.00 0.00 0.00 1 1013.0
20260508035022 51 277 5.0 8.0 0.00 0.00 0.00 1 1013.1
20260508034603 52 239 4.0 7.0 0.00 0.00 0.00 1 1013.0
20260508034028 53 239 4.0 8.0 0.00 0.00 0.00 1 1013.0
20260508033527 54 239 4.0 8.0 0.00 0.00 0.00 1 1012.8
20260508033051 55 228 4.0 12.0 0.00 0.00 0.00 1 1012.8
20260508032518 56 228 5.0 12.0 0.00 0.00 0.00 1 1013.0
20260508032015 56 226 10.0 12.0 0.00 0.00 0.00 1 1012.9
20260508031846 57 224 4.0 9.0 0.00 0.00 0.00 1 1012.9
20260508031015 57 224 7.0 9.0 0.00 0.00 0.00 1 1012.9
20260508030518 58 229 4.0 9.0 0.00 0.00 0.00 1 1012.7
20260508030121 58 234 6.0 12.0 0.00 0.00 0.00 1 1012.8
20260508025514 58 234 9.0 14.0 0.00 0.00 0.00 1 1012.8
20260508025016 59 249 11.0 15.0 0.00 0.00 0.00 1 1012.8
20260508024608 59 291 8.0 12.0 0.00 0.00 0.00 1 1012.7
20260508024016 58 266 3.0 8.0 0.00 0.00 0.00 1 1012.7
20260508023516 58 279 3.0 8.0 0.00 0.00 0.00 1 1012.4
20260508023053 57 281 2.0 9.0 0.00 0.00 0.00 1 1012.5
20260508022514 56 257 5.0 9.0 0.00 0.00 0.00 1 1012.4
20260508022020 58 223 6.0 8.0 0.00 0.00 0.00 1 1012.5
20260508021535 59 338 2.0 5.0 0.00 0.00 0.00 1 1012.1
20260508021017 60 338 3.0 5.0 0.00 0.00 0.00 1 1012.0
20260508020520 60 338 4.0 6.0 0.00 0.00 0.00 1 1012.1
20260508020053 61 338 3.0 9.0 0.00 0.00 0.00 1 1012.1
20260508015516 62 338 6.0 11.0 0.00 0.00 0.00 1 1012.0
20260508015015 63 344 7.0 13.0 0.00 0.00 0.00 1 1012.0
20260508014612 63 344 9.0 13.0 0.00 0.00 0.00 1 1011.9
20260508014017 64 342 9.0 11.0 0.00 0.00 0.00 1 1011.7
20260508013516 64 346 6.0 11.0 0.00 0.00 0.00 1 1011.8
20260508013114 64 355 7.0 12.0 0.00 0.00 0.00 1 1011.7
20260508012518 64 360 9.0 13.0 0.00 0.00 0.00 1 1011.7
20260508012015 65 319 7.0 11.0 0.00 0.00 0.00 1 1011.7
20260508011608 64 308 5.0 13.0 0.00 0.00 0.00 1 1011.7
20260508011016 64 306 10.0 13.0 0.00 0.00 0.00 1 1011.6
20260508010514 64 294 7.0 14.0 0.00 0.00 0.00 1 1011.6
20260508010048 65 308 9.0 15.0 0.00 0.00 0.00 1 1011.5
20260508005516 66 305 11.0 15.0 0.00 0.00 0.00 1 1011.6
20260508005016 66 333 9.0 16.0 0.00 0.00 0.00 1 1011.5
20260508004556 66 301 9.0 17.0 0.00 0.00 0.00 1 1011.5
20260508004014 66 306 12.0 18.0 0.00 0.00 0.00 1 1011.5
20260508003519 65 355 11.0 19.0 0.00 0.00 0.00 1 1011.6
20260508003108 65 310 13.0 19.0 0.00 0.00 0.00 1 1011.6
20260508002516 66 329 12.0 19.0 0.00 0.00 0.00 1 1011.4
20260508002018 66 313 12.0 21.0 0.00 0.00 0.00 1 1011.4
20260508001546 65 333 16.0 21.0 0.00 0.00 0.00 1 1011.3
20260508001015 64 5 10.0 18.0 0.00 0.00 0.00 1 1011.4
20260508000516 64 346 15.0 20.0 0.00 0.00 0.00 1 1011.5
20260508000054 64 336 12.0 20.0 0.00 0.00 0.00 1 1011.5
20260507235516 64 334 11.0 17.0 0.00 0.00 0.00 1 1011.5
20260507235020 65 345 12.0 17.0 0.00 0.00 0.00 1 1011.5
20260507234611 67 304 9.0 17.0 0.00 0.00 0.00 1 1011.5
20260507234016 65 317 12.0 17.0 0.00 0.00 0.00 1 1011.5
20260507233520 64 315 12.0 16.0 0.00 0.00 0.00 1 1011.5
20260507233055 65 355 9.0 18.0 0.00 0.00 0.00 1 1011.7
20260507232511 66 347 9.0 20.0 0.00 0.00 0.00 1 1011.7
20260507232019 66 336 16.0 20.0 0.00 0.00 0.00 1 1011.5
20260507231555 65 340 14.0 23.0 0.00 0.00 0.00 1 1011.5
20260507231010 64 346 16.0 23.0 0.00 0.00 0.00 1 1011.4
20260507230539 64 331 13.0 19.0 0.00 0.00 0.00 1 1011.5
20260507230110 64 313 14.0 23.0 0.00 0.00 0.00 1 1011.5
20260507225516 64 338 17.0 23.0 0.00 0.00 0.00 1 1011.5
20260507225018 65 345 14.0 19.0 0.00 0.00 0.00 1 1011.5
20260507224927 65 320 12.0 19.0 0.00 0.00 0.00 1 1011.7
20260507224019 65 355 14.0 21.0 0.00 0.00 0.00 1 1011.4
20260507223522 64 319 15.0 21.0 0.00 0.00 0.00 1 1011.6
20260507223059 64 355 15.0 25.0 0.00 0.00 0.00 1 1011.6
20260507222514 65 336 18.0 25.0 0.00 0.00 0.00 1 1011.5
20260507222018 65 360 17.0 25.0 0.00 0.00 0.00 1 1011.3
20260507221543 66 314 16.0 22.0 0.00 0.00 0.00 1 1011.7
20260507221017 66 307 16.0 25.0 0.00 0.00 0.00 1 1011.8
20260507220517 64 300 14.0 22.0 0.00 0.00 0.00 1 1011.8
20260507220048 64 311 17.0 24.0 0.00 0.00 0.00 1 1011.6
20260507215516 65 321 17.0 24.0 0.00 0.00 0.00 1 1011.7
20260507215015 65 296 15.0 23.0 0.00 0.00 0.00 1 1011.8
20260507214546 65 303 18.0 23.0 0.00 0.00 0.00 1 1011.8
20260507214016 65 340 12.0 25.0 0.00 0.00 0.00 1 1012.0
20260507213517 65 323 15.0 25.0 0.00 0.00 0.00 1 1011.9
20260507213050 65 314 12.0 25.0 0.00 0.00 0.00 1 1012.1
20260507212516 66 306 16.0 24.0 0.00 0.00 0.00 1 1012.0
20260507212016 66 322 20.0 23.0 0.00 0.00 0.00 1 1012.0
20260507211552 66 339 10.0 20.0 0.00 0.00 0.00 1 1012.3
20260507211016 65 292 14.0 20.0 0.00 0.00 0.00 1 1012.1
20260507210518 65 304 13.0 20.0 0.00 0.00 0.00 1 1012.3
20260507210113 65 281 14.0 20.0 0.00 0.00 0.00 1 1012.3
20260507205516 64 309 14.0 23.0 0.00 0.00 0.00 1 1012.3
20260507205018 65 325 18.0 25.0 0.00 0.00 0.00 1 1012.3
20260507204555 65 336 20.0 25.0 0.00 0.00 0.00 1 1012.3
20260507204017 66 281 17.0 24.0 0.00 0.00 0.00 1 1012.4
20260507203516 64 310 15.0 21.0 0.00 0.00 0.00 1 1012.4
20260507203046 64 296 9.0 19.0 0.00 0.00 0.00 1 1012.5
20260507202516 64 282 14.0 23.0 0.00 0.00 0.00 1 1012.5
20260507202016 64 339 15.0 23.0 0.00 0.00 0.00 1 1012.6
20260507201554 64 305 13.0 23.0 0.00 0.00 0.00 1 1012.6
20260507201020 65 314 15.0 23.0 0.00 0.00 0.00 1 1012.4
20260507200519 64 344 16.0 26.0 0.00 0.00 0.00 1 1012.6
20260507200106 64 337 17.0 26.0 0.00 0.00 0.00 1 1012.2
20260507195517 64 343 18.0 25.0 0.00 0.00 0.00 1 1012.2
20260507195017 64 311 18.0 26.0 0.00 0.00 0.00 1 1012.2
20260507194551 63 332 19.0 26.0 0.00 0.00 0.00 1 1012.1
20260507194016 62 329 14.0 21.0 0.00 0.00 0.00 1 1012.3
20260507193518 62 329 16.0 21.0 0.00 0.00 0.00 1 1012.1
20260507193113 62 313 13.0 21.0 0.00 0.00 0.00 1 1012.2
20260507192515 62 329 16.0 21.0 0.00 0.00 0.00 1 1012.0
20260507192027 62 291 14.0 22.0 0.00 0.00 0.00 1 1012.1
20260507191558 62 300 13.0 22.0 0.00 0.00 0.00 1 1012.2
20260507191028 63 312 14.0 23.0 0.00 0.00 0.00 1 1012.2
20260507190518 64 337 11.0 23.0 0.00 0.00 0.00 1 1012.1
20260507190051 64 325 12.0 23.0 0.00 0.00 0.00 1 1012.1
20260507185514 64 309 11.0 23.0 0.00 0.00 0.00 1 1012.3
20260507185013 64 281 12.0 21.0 0.00 0.00 0.00 1 1012.1
20260507184536 64 327 11.0 19.0 0.00 0.00 0.00 1 1012.1
20260507184015 63 346 11.0 19.0 0.00 0.00 0.00 1 1012.0
20260507183514 62 329 13.0 19.0 0.00 0.00 0.00 1 1012.0
20260507183100 62 261 13.0 23.0 0.00 0.00 0.00 1 1012.2
20260507182518 63 287 17.0 23.0 0.00 0.00 0.00 1 1012.1
20260507182021 62 317 14.0 20.0 0.00 0.00 0.00 1 1012.2
20260507181547 63 329 14.0 23.0 0.00 0.00 0.00 1 1012.1
20260507181019 63 313 16.0 23.0 0.00 0.00 0.00 1 1012.1
20260507180522 63 335 17.0 23.0 0.00 0.00 0.00 1 1012.1
20260507180059 61 321 15.0 21.0 0.00 0.00 0.00 1 1012.2
20260507175518 61 338 15.0 22.0 0.00 0.00 0.00 1 1012.4
20260507175019 63 298 13.0 24.0 0.00 0.00 0.00 1 1012.5
20260507174548 63 304 14.0 21.0 0.00 0.00 0.00 1 1012.2
20260507174017 62 302 14.0 23.0 0.00 0.00 0.00 1 1012.3
20260507173520 61 336 14.0 23.0 0.00 0.00 0.00 1 1012.4
20260507173128 62 303 14.0 24.0 0.00 0.00 0.00 1 1012.4
20260507172518 62 338 18.0 24.0 0.00 0.00 0.00 1 1012.5
20260507172018 61 337 15.0 25.0 0.00 0.00 0.00 1 1012.5
20260507171551 61 334 14.0 25.0 0.00 0.00 0.00 1 1012.7
20260507171020 61 307 13.0 26.0 0.00 0.00 0.00 1 1012.6
20260507170516 61 317 20.0 26.0 0.00 0.00 0.00 1 1012.4
20260507170056 60 317 19.0 25.0 0.00 0.00 0.00 1 1012.6
20260507165519 61 317 15.0 21.0 0.00 0.00 0.00 1 1012.7
20260507165018 62 360 15.0 21.0 0.00 0.00 0.00 1 1012.7
20260507164600 61 333 15.0 21.0 0.00 0.00 0.00 1 1012.7
20260507164021 60 327 15.0 21.0 0.00 0.00 0.00 1 1012.7
20260507163516 61 336 14.0 20.0 0.00 0.00 0.00 1 1012.7
20260507163053 61 338 13.0 21.0 0.00 0.00 0.00 1 1012.8
20260507162515 61 346 15.0 21.0 0.00 0.00 0.00 1 1012.7
20260507162030 61 344 16.0 21.0 0.00 0.00 0.00 1 1012.8
20260507161604 61 360 17.0 20.0 0.00 0.00 0.00 1 1012.8
20260507161015 60 325 14.0 22.0 0.00 0.00 0.00 1 1012.8
20260507160517 59 302 17.0 23.0 0.00 0.00 0.00 1 1012.7
20260507155519 60 325 14.0 22.0 0.00 0.00 0.00 1 1012.8
20260507155015 60 346 15.0 22.0 0.00 0.00 0.00 1 1012.7
20260507154545 59 338 11.0 20.0 0.00 0.00 0.00 1 1012.8
20260507154017 59 333 16.0 20.0 0.00 0.00 0.00 1 1012.5
20260507153516 58 315 10.0 20.0 0.00 0.00 0.00 1 1012.5
20260507153047 57 248 2.0 8.0 0.00 0.00 0.00 1 1012.9
20260507152515 56 264 2.0 4.0 0.00 0.00 0.00 1 1012.7
20260507152019 55 264 2.0 4.0 0.00 0.00 0.00 1 1012.5
20260507151557 54 264 1.0 4.0 0.00 0.00 0.00 1 1012.4
20260507151019 54 264 2.0 4.0 0.00 0.00 0.00 1 1012.4
20260507150516 53 264 2.0 4.0 0.00 0.00 0.00 1 1012.5
20260507150056 53 264 2.0 6.0 0.00 0.00 0.00 1 1012.5
20260507145516 53 264 3.0 7.0 0.00 0.00 0.00 1 1012.6
20260507145029 53 264 2.0 8.0 0.00 0.00 0.00 1 1012.5
20260507144600 53 244 3.0 9.0 0.00 0.00 0.00 1 1012.7
20260507144018 53 263 6.0 9.0 0.00 0.00 0.00 1 1012.6
20260507143516 53 273 7.0 10.0 0.00 0.00 0.00 1 1012.6
20260507143059 53 289 7.0 10.0 0.00 0.00 0.00 1 1012.6
20260507142516 52 279 3.0 9.0 0.00 0.00 0.00 1 1012.6
20260507142017 52 279 5.0 9.0 0.00 0.00 0.00 1 1012.6
20260507141610 52 317 3.0 8.0 0.00 0.00 0.00 1 1012.4
20260507141021 52 317 4.0 10.0 0.00 0.00 0.00 1 1012.5
20260507140519 52 304 6.0 11.0 0.00 0.00 0.00 1 1012.7
20260507140112 52 305 7.0 11.0 0.00 0.00 0.00 1 1012.6
20260507135515 53 315 8.0 11.0 0.00 0.00 0.00 1 1012.7
20260507135017 53 325 8.0 11.0 0.00 0.00 0.00 1 1012.7
20260507134603 52 321 4.0 9.0 0.00 0.00 0.00 1 1012.6
20260507134019 52 319 5.0 10.0 0.00 0.00 0.00 1 1012.4
20260507133518 51 323 7.0 10.0 0.00 0.00 0.00 1 1012.3
20260507133050 51 325 7.0 10.0 0.00 0.00 0.00 1 1012.4
20260507132516 51 319 7.0 11.0 0.00 0.00 0.00 1 1012.2
20260507132017 51 323 8.0 11.0 0.00 0.00 0.00 1 1012.2
20260507131547 51 324 8.0 12.0 0.00 0.00 0.00 1 1012.3
20260507131018 50 315 9.0 12.0 0.00 0.00 0.00 1 1012.2
20260507130516 50 310 9.0 12.0 0.00 0.00 0.00 1 1012.1
20260507130057 50 331 9.0 13.0 0.00 0.00 0.00 1 1012.1
20260507125517 50 327 10.0 13.0 0.00 0.00 0.00 1 1011.9
20260507125031 48 329 9.0 11.0 0.00 0.00 0.00 1 1012.0
20260507124552 47 331 8.0 11.0 0.00 0.00 0.00 1 1012.1
20260507124016 46 318 8.0 10.0 0.00 0.00 0.00 1 1012.0
20260507123518 45 314 7.0 10.0 0.00 0.00 0.00 1 1012.0
20260507123044 44 325 7.0 10.0 0.00 0.00 0.00 1 1012.0
20260507122514 43 311 8.0 11.0 0.00 0.00 0.00 1 1012.0
20260507122012 44 336 9.0 11.0 0.00 0.00 0.00 1 1011.8
20260507121547 44 337 8.0 10.0 0.00 0.00 0.00 1 1011.9
20260507121015 44 326 7.0 10.0 0.00 0.00 0.00 1 1011.8
20260507120515 43 317 6.0 9.0 0.00 0.00 0.00 1 1011.8
20260507120040 43 319 5.0 8.0 0.00 0.00 0.00 1 1011.7
20260507115516 43 298 5.0 8.0 0.00 0.00 0.00 1 1011.7
20260507115012 43 272 3.0 6.0 0.00 0.00 0.00 1 1011.7
20260507114543 44 272 3.0 6.0 0.00 0.00 0.00 1 1011.7
20260507114015 44 272 2.0 8.0 0.00 0.00 0.00 1 1011.7
20260507113518 44 274 7.0 8.0 0.00 0.00 0.00 1 1011.6
20260507113049 43 306 5.0 8.0 0.00 0.00 0.00 1 1011.7
20260507112513 43 302 6.0 8.0 0.00 0.00 0.00 1 1011.5
20260507112012 43 308 4.0 6.0 0.00 0.00 0.00 1 1011.5
20260507111556 44 294 4.0 7.0 0.00 0.00 0.00 1 1011.4
20260507111013 45 294 5.0 7.0 0.00 0.00 0.00 1 1011.3
20260507110515 45 281 3.0 7.0 0.00 0.00 0.00 1 1011.2
20260507110040 45 281 4.0 6.0 0.00 0.00 0.00 1 1011.4
20260507105512 45 286 4.0 7.0 0.00 0.00 0.00 1 1011.4
20260507105016 45 286 4.0 7.0 0.00 0.00 0.00 1 1011.4
20260507104539 45 286 5.0 8.0 0.00 0.00 0.00 1 1011.3
20260507104017 45 300 5.0 8.0 0.00 0.00 0.00 1 1011.2
20260507103516 46 300 4.0 6.0 0.00 0.00 0.00 1 1011.1
20260507103038 47 299 4.0 6.0 0.00 0.00 0.00 1 1011.0
20260507102516 48 334 5.0 6.0 0.00 0.00 0.00 1 1010.9
20260507102016 47 314 2.0 5.0 0.00 0.00 0.00 1 1011.0
20260507101538 47 5 1.0 6.0 0.00 0.00 0.00 1 1010.8
20260507101018 47 5 0.0 6.0 0.00 0.00 0.00 1 1010.8
20260507100518 47 320 0.0 5.0 0.00 0.00 0.00 1 1010.8
20260507100045 48 320 1.0 5.0 0.00 0.00 0.00 1 1010.7
20260507095516 49 290 1.0 4.0 0.00 0.00 0.00 1 1010.6
20260507095015 50 355 0.0 3.0 0.00 0.00 0.00 1 1010.6
20260507094534 50 355 2.0 6.0 0.00 0.00 0.00 1 1010.5
20260507094016 49 355 2.0 6.0 0.00 0.00 0.00 1 1010.5
20260507093516 50 61 2.0 3.0 0.00 0.00 0.00 1 1010.3
20260507093049 50 61 0.0 4.0 0.00 0.00 0.00 1 1010.4
20260507092517 50 61 1.0 3.0 0.00 0.00 0.00 1 1010.4
20260507092017 50 61 1.0 4.0 0.00 0.00 0.00 1 1010.3
20260507091539 49 61 2.0 10.0 0.00 0.00 0.00 1 1010.2
20260507091014 50 61 4.0 11.0 0.00 0.00 0.00 1 1010.1
20260507090516 49 76 8.0 11.0 0.00 0.00 0.00 1 1010.2
20260507090045 50 59 6.0 14.0 0.00 0.00 0.00 1 1010.1
20260507085515 50 43 11.0 14.0 0.00 0.00 0.00 1 1010.2
20260507085017 50 51 11.0 15.0 0.00 0.00 0.00 1 1010.1
20260507084546 49 49 12.0 15.0 0.00 0.00 0.00 1 1010.0
20260507084019 49 43 11.0 14.0 0.00 0.00 0.00 1 1010.1
20260507083516 48 61 8.0 13.0 0.00 0.00 0.00 1 1009.9
20260507083043 48 70 8.0 11.0 0.00 0.00 0.00 1 1009.5
20260507082517 48 74 8.0 11.0 0.00 0.00 0.00 1 1009.5
20260507082016 48 69 7.0 10.0 0.00 0.00 0.00 1 1009.5
20260507081546 48 60 7.0 13.0 0.00 0.00 0.00 1 1009.6
20260507081016 49 54 10.0 13.0 0.00 0.00 0.00 1 1009.6
20260507080520 49 54 9.0 12.0 0.00 0.00 0.00 1 1009.6
20260507080312 48 51 9.0 13.0 0.00 0.00 0.00 1 1009.8
20260507075516 48 71 11.0 13.0 0.00 0.00 0.00 1 1009.9
20260507075016 48 54 9.0 13.0 0.00 0.00 0.00 1 1009.8
20260507074823 47 57 10.0 13.0 0.00 0.00 0.00 1 1009.8
20260507074011 48 40 6.0 10.0 0.00 0.00 0.00 1 1009.9
20260507073516 49 40 5.0 7.0 0.00 0.00 0.00 1 1009.6
20260507073043 49 40 5.0 11.0 0.00 0.00 0.00 1 1009.5
20260507072516 50 54 6.0 13.0 0.00 0.00 0.00 1 1009.4
20260507072015 50 57 10.0 13.0 0.00 0.00 0.00 1 1009.3
20260507071539 49 48 9.0 13.0 0.00 0.00 0.00 1 1009.3
20260507071016 49 55 10.0 13.0 0.00 0.00 0.00 1 1009.2
20260507070516 49 61 10.0 16.0 0.00 0.00 0.00 1 1009.1
20260507070052 50 53 12.0 16.0 0.00 0.00 0.00 1 1009.0
20260507065515 49 53 12.0 15.0 0.00 0.00 0.00 1 1008.9
20260507065015 49 51 10.0 14.0 0.00 0.00 0.00 1 1009.0
20260507064605 49 58 10.0 14.0 0.00 0.00 0.00 1 1009.0
20260507064016 48 51 11.0 15.0 0.00 0.00 0.00 1 1008.9
20260507063517 47 38 10.0 15.0 0.00 0.00 0.00 1 1008.9
20260507063038 47 40 11.0 15.0 0.00 0.00 0.00 1 1008.9
20260507062516 47 39 9.0 19.0 0.00 0.00 0.00 1 1008.9
20260507062211 48 51 13.0 20.0 0.00 0.00 0.00 1 1008.9
20260507061538 48 58 15.0 22.0 0.00 0.00 0.00 1 1008.7
20260507061014 49 88 18.0 22.0 0.00 0.00 0.00 1 1008.9
20260507060515 49 65 14.0 21.0 0.00 0.00 0.00 1 1009.0
20260507060036 50 77 15.0 21.0 0.00 0.00 0.00 1 1008.7
20260507055513 51 68 14.0 20.0 0.00 0.00 0.00 1 1008.8